Location: Unspecified
(43.4354°N, 0.0000°E)
Time: 20:08:26
(UTC+00:00)

Transit 2A - Pass Details

Date: 19 June 2019
Orbit: 594 x 964 km, 66.7° (Epoch: 21 July)

Event Time Altitude Azimuth Distance (km) Brightness Sun altitude
Rises 02:05:21 0° 236° (WSW) 3,624 - -17.3°
Reaches altitude 10° 02:08:06 10° 245° (WSW) 2,694 - -17.1°
Exits shadow 02:09:29 16° 251° (WSW) 2,260 8.0 -16.9°
Maximum altitude 02:13:58 38° 312° (NW) 1,432 7.5 -16.5°
Drops below altitude 10° 02:19:45 10° 19° (NNE) 2,651 10.0 -16.0°
Sets 02:22:27 0° 28° (NNE) 3,560 11.3 -15.7°
